Content
SEND FEEDBACK

Daily
Averages
Monthly
Summary
United States of America

BROWNSVILLE, TENNESSEE


Home > North America > United States > Tennessee
Elevation: 112 meters     Latitude: 35 35N     Longitude: 089 15W

WEATHER
 
SELECT A DAY
Number of Records: 207,987;   Date Range: 1/1/95 - 8/12/14
 
SHARE

PRINT THIS DATA

[ ← Previous Day ]
WEATHER ALMANAC - 31 JANUARY, 2013
[ Next Day → ]
[ °F ]   °C
Weather ElementAverageHighLow
Temperature2.9 °C10.6 °C (3:53 pm)-2.8 °C (6:53 am)
Dewpoint-3.1 °C1 °C (9:10 pm)-5.6 °C (2:53 am)
Humidity68 %93 % (10:12 pm)38 % (3:53 pm)
Barometer1021 hPa1026.1 hPa (10:53 pm)1016.9 hPa (1:53 am)
Wind Speed20.1 km/h35.2 km/h (9:44 pm)
Wind Gust48.1 km/h (9:44 pm)
Weather ElementAverage
Visibility13.4 km
Wind DirectionWNW (279.6 °)

Weather ElementTotal
Precipitation---
Heating Degree Days14.4 (Base 18.3)
Averaged from 25 records on 31 January, 2013
WEATHER CONDITIONS BREAKOUT
WIND DIRECTION BREAKOUT
WEATHER BY HOUR - 31 JANUARY, 2013
[ °F ]   °C
Local TimeTemperatureDewpointHumidityBarometerVisibilityWind DirectionWind SpeedGust SpeedPrecipitationEventsConditions
1:53 AM0.6 °C-5 °C66 %1016.9 hPa16.1 kmWest (280°)20.4 km/hOvercast
2:53 AM-0.6 °C-5.6 °C69 %1017.3 hPa16.1 kmWest (270°)16.7 km/hClear
3:53 AM-1.1 °C-5.6 °C72 %1017.3 hPa16.1 kmWest (270°)11.1 km/hClear
4:53 AM-1.1 °C-5.6 °C72 %1017.6 hPa16.1 kmWSW (250°)11.1 km/hClear
5:53 AM-1.7 °C-5.6 °C75 %1019 hPa16.1 kmWest (270°)11.1 km/hClear
6:53 AM-2.8 °C-5 °C85 %1020.3 hPa16.1 kmWSW (250°)11.1 km/hClear
7:53 AM-1.1 °C-4.4 °C79 %1020.7 hPa16.1 kmWSW (240°)11.1 km/hClear
9:53 AM2.2 °C-3.9 °C64 %1021.7 hPa16.1 kmWSW (250°)16.7 km/hClear
10:53 AM3.9 °C-3.9 °C57 %1021.7 hPa16.1 kmSW (230°)16.7 km/hClear
11:53 AM5.6 °C-3.9 °C51 %1021 hPa16.1 kmWest (260°)16.7 km/hClear
12:53 PM7.8 °C-3.9 °C44 %1019.6 hPa16.1 kmWSW (250°)20.4 km/hClear
1:53 PM9.4 °C-3.9 °C39 %1019 hPa16.1 kmWSW (250°)24.1 km/hClear
2:53 PM10 °C-3.3 °C39 %1017.6 hPa16.1 kmWSW (240°)22.2 km/h31.5 km/hClear
3:53 PM10.6 °C-3.3 °C38 %1018.3 hPa16.1 kmWest (260°)22.2 km/hClear
4:53 PM10 °C-2.8 °C41 %1018.6 hPa16.1 kmWest (270°)18.5 km/hClear
6:53 PM7.8 °C0 °C58 %1019.3 hPa16.1 kmWSW (250°)9.3 km/hOvercast
7:53 PM8.3 °C0.6 °C59 %1020.7 hPa16.1 kmNW (310°)27.8 km/h35.2 km/h0 mmOvercast
8:53 PM2.8 °C0.6 °C86 %1023.4 hPa16.1 kmNNW (340°)27.8 km/h46.3 km/h0 mmRainLight Rain
9:10 PM3 °C1 °C87 %1023 hPa16.1 kmNNW (340°)22.2 km/h0 mmOvercast
9:44 PM1 °C-1 °C87 %1024.4 hPa2.9 kmNW (310°)35.2 km/h48.1 km/h0 mmSnowLight Snow
9:53 PM0 °C-1.1 °C92 %1025.1 hPa1.6 kmNW (310°)29.6 km/h42.6 km/h0 mmSnowLight Snow
10:12 PM0 °C-1 °C93 %1024.7 hPa1.3 kmNW (310°)22.2 km/h0 mmSnowLight Snow
10:53 PM-0.6 °C-2.8 °C85 %1026.1 hPa1.9 kmNNW (330°)33.3 km/h42.6 km/h0 mmSnowLight Snow
10:59 PM-1 °C-3 °C86 %1026.1 hPa4.8 kmNW (320°)24.1 km/h42.6 km/h0 mmSnowLight Snow
11:22 PM-1 °C-5 °C75 %1026.1 hPa16.1 kmNNW (330°)22.2 km/h0 mmOvercast
Hourly data recorded from KMKL, located 0 kilometers away from Brownsville, Tennessee







STORIES FROM OUR PARTNERS